EW9248 Weather Reports


Display with metric or nautical units.
time (UTC)temp
F
wind
direction
speed
MPH
gust
MPH
rain 1hr
in
rain 24hr
in
rain mn
in
humidity
%
barometer
mb
20260831174816 67 0.0 0.0 0.05 0.27 0.27 91 1020.4
20260831173816 67 0.0 0.0 0.05 0.26 0.26 91 1020.5
20260831172816 67 0.0 1.0 0.06 0.25 0.25 91 1020.6
20260831171917 67 0.0 0.0 0.08 0.25 0.25 91 1020.7
20260831170816 66 0.0 1.0 0.09 0.24 0.24 91 1020.8
20260831164836 66 0.0 0.0 0.18 0.22 0.22 91 1021.0
20260831163857 67 0.0 0.0 0.21 0.21 0.21 91 1021.0
20260831162856 67 0.0 0.0 0.19 0.19 0.19 90 1021.1
20260831161856 67 0.0 0.0 0.17 0.17 0.17 90 1021.1
20260831160917 67 0.0 0.0 0.15 0.15 0.15 89 1021.2
20260831155836 67 0.0 0.0 0.11 0.11 0.12 88 1021.3
20260831154856 68 0.0 0.0 0.04 0.04 0.04 86 1021.5
20260831153937 68 0.0 0.0 0.00 0.00 0.00 86 1021.1
20260831151936 69 0.0 0.0 0.00 0.00 0.00 84 1021.0
20260831150856 69 0.0 0.0 0.00 0.00 0.00 84 1021.0
20260831145936 68 0.0 0.0 0.00 0.00 0.00 85 1021.0
20260831144836 68 0.0 0.0 0.00 0.00 0.00 86 1021.0
20260831143856 68 0.0 0.0 0.00 0.00 0.00 85 1021.0
20260831142815 68 0.0 0.0 0.00 0.00 0.00 86 1021.1
20260831141815 68 0.0 0.0 0.00 0.00 0.00 86 1020.9
20260831140815 68 0.0 0.0 0.00 0.00 0.00 87 1021.0
20260831135816 67 0.0 0.0 0.00 0.00 0.00 89 1020.9
20260831134856 67 0.0 0.0 0.00 0.00 0.00 90 1021.1
20260831133836 66 0.0 1.0 0.00 0.00 0.00 90 1021.1
20260831132815 66 0.0 0.0 0.00 0.00 0.00 91 1021.1
20260831131815 65 0.0 0.0 0.00 0.00 0.00 92 1021.1
20260831130815 64 0.0 0.0 0.00 0.00 0.00 92 1021.4
20260831125836 63 0.0 0.0 0.00 0.00 0.00 92 1021.4
20260831124855 63 0.0 0.0 0.00 0.00 0.00 92 1021.3
20260831123815 63 0.0 0.0 0.00 0.00 0.00 92 1021.2
20260831122936 62 0.0 0.0 0.00 0.00 0.00 92 1021.2
20260831121836 62 0.0 0.0 0.00 0.00 0.00 92 1021.3
20260831120915 62 0.0 0.0 0.00 0.00 0.00 92 1021.4
20260831115856 61 0.0 0.0 0.00 0.00 0.00 92 1021.6
20260831114815 61 0.0 0.0 0.00 0.00 0.00 92 1021.5
20260831113815 61 0.0 0.0 0.00 0.00 0.00 92 1021.4
20260831112815 61 0.0 0.0 0.00 0.00 0.00 92 1021.4
20260831111936 61 0.0 0.0 0.00 0.00 0.00 92 1021.4
20260831110815 61 0.0 0.0 0.00 0.00 0.00 92 1021.3
20260831105835 61 0.0 0.0 0.00 0.00 0.00 92 1021.1
20260831104842 61 0.0 0.0 0.00 0.00 0.00 92 1020.9
20260831103835 61 0.0 0.0 0.00 0.00 0.00 92 1020.9
20260831102815 61 0.0 0.0 0.00 0.00 0.00 92 1020.8
20260831101835 61 0.0 0.0 0.00 0.00 0.00 92 1020.8
20260831100816 61 0.0 0.0 0.00 0.00 0.00 92 1020.8
20260831095855 61 0.0 0.0 0.00 0.00 0.00 92 1020.9
20260831094816 61 0.0 0.0 0.00 0.00 0.00 92 1021.0
20260831093815 61 0.0 0.0 0.00 0.00 0.00 92 1020.9
20260831092815 61 0.0 0.0 0.00 0.00 0.00 92 1021.0
20260831091936 61 0.0 0.0 0.00 0.00 0.00 92 1020.9
20260831090815 61 0.0 0.0 0.00 0.00 0.00 92 1021.1
20260831085835 61 0.0 0.0 0.00 0.00 0.00 92 1021.2
20260831084815 61 0.0 0.0 0.00 0.00 0.00 91 1021.1
20260831083855 61 0.0 0.0 0.00 0.00 0.00 91 1020.8
20260831082836 61 0.0 0.0 0.00 0.00 0.00 91 1020.7
20260831081815 62 0.0 0.0 0.00 0.00 0.00 91 1020.9
20260831080835 62 0.0 0.0 0.00 0.00 0.00 91 1020.9
20260831075856 62 0.0 0.0 0.00 0.00 0.00 91 1020.8
20260831074815 62 0.0 0.0 0.00 0.00 0.00 91 1020.7
20260831073815 62 0.0 0.0 0.00 0.00 0.00 91 1020.9
20260831072816 62 0.0 0.0 0.00 0.00 0.00 90 1021.0
20260831071815 63 0.0 0.0 0.00 0.00 0.00 90 1021.0
20260831070835 63 0.0 0.0 0.00 0.00 0.00 90 1020.9
20260831065815 63 0.0 0.0 0.00 0.00 0.00 90 1021.0
20260831064815 63 0.0 0.0 0.00 0.00 0.00 90 1021.1
20260831063855 63 0.0 0.0 0.00 0.00 0.00 89 1021.0
20260831062816 64 0.0 0.0 0.00 0.00 0.00 89 1021.0
20260831061815 64 0.0 0.0 0.00 0.00 0.00 89 1021.2
20260831060916 64 0.0 0.0 0.00 0.00 0.00 89 1021.3
20260831055815 65 0.0 0.0 0.00 0.00 0.00 89 1021.5
20260831054815 65 0.0 0.0 0.00 0.00 0.00 89 1021.6
20260831053935 65 0.0 0.0 0.00 0.00 0.00 89 1021.8
20260831052855 65 0.0 0.0 0.00 0.00 0.00 88 1021.7
20260831051818 65 0.0 0.0 0.00 0.00 0.00 88 1021.7
20260831050817 65 0.0 0.0 0.00 0.00 0.00 88 1021.7
20260831045917 65 0.0 0.0 0.00 0.00 0.00 88 1021.5
20260831044838 65 0.0 0.0 0.00 0.00 0.00 88 1021.5
20260831043817 65 0.0 0.0 0.00 0.00 0.00 88 1021.7
20260831042817 65 0.0 0.0 0.00 0.00 0.00 88 1021.7
20260831041837 65 0.0 0.0 0.00 0.00 0.00 88 1021.6
20260831040857 66 0.0 0.0 0.00 0.00 0.00 88 1021.6
20260831035819 65 0.0 0.0 0.00 0.00 0.00 87 1021.4
20260831034816 66 0.0 0.0 0.00 0.00 0.00 87 1021.4
20260831033835 66 0.0 0.0 0.00 0.00 0.00 87 1021.6
20260831032835 66 0.0 0.0 0.00 0.00 0.00 87 1021.5
20260831031816 66 0.0 0.0 0.00 0.00 0.00 86 1021.5
20260831030815 66 0.0 0.0 0.00 0.00 0.00 86 1021.6
20260831025815 66 0.0 0.0 0.00 0.00 0.00 86 1021.6
20260831024815 66 0.0 0.0 0.00 0.00 0.00 86 1021.5
20260831023815 66 0.0 0.0 0.00 0.00 0.00 86 1021.4
20260831022815 66 0.0 0.0 0.00 0.00 0.00 85 1021.4
20260831021815 66 0.0 0.0 0.00 0.00 0.00 84 1021.5
20260831020858 67 0.0 0.0 0.00 0.00 0.00 83 1021.4
20260831015857 67 0.0 0.0 0.00 0.00 0.00 83 1021.4
20260831014817 67 0.0 1.0 0.00 0.00 0.00 83 1021.4
20260831013838 67 0.0 0.0 0.00 0.00 0.00 83 1021.4
20260831012817 67 0.0 0.0 0.00 0.00 0.00 82 1021.3
20260831011857 68 0.0 0.0 0.00 0.00 0.00 82 1021.3
20260831010837 68 0.0 1.0 0.00 0.00 0.00 81 1021.2
20260831005816 68 0.0 2.0 0.00 0.00 0.00 81 1021.1
20260831004817 68 247 4.0 7.0 0.00 0.00 0.00 82 1021.0
20260831003857 67 292 1.0 8.0 0.00 0.00 0.00 85 1020.9
20260831002817 67 0.0 0.0 0.00 0.00 0.00 86 1020.8
20260831001816 67 0.0 0.0 0.00 0.00 0.00 86 1020.4
20260831000857 67 0.0 0.0 0.00 0.00 0.00 86 1020.2
20260830235816 68 0.0 0.0 0.00 0.00 0.00 85 1020.0
20260830234817 68 0.0 0.0 0.00 0.00 0.00 85 1019.9
20260830233837 68 0.0 0.0 0.00 0.00 0.00 85 1020.0
20260830232816 68 0.0 2.0 0.00 0.00 0.00 86 1019.9
20260830231816 68 0.0 0.0 0.00 0.00 0.00 86 1019.8
20260830230816 68 0.0 0.0 0.00 0.00 0.00 86 1019.9
20260830225836 68 0.0 0.0 0.00 0.00 0.00 85 1019.9
20260830224857 69 0.0 0.0 0.00 0.00 0.00 85 1020.0
20260830223836 69 0.0 0.0 0.00 0.00 0.00 85 1019.9
20260830222816 69 0.0 0.0 0.00 0.00 0.00 85 1019.9
20260830221816 69 0.0 0.0 0.00 0.00 0.00 84 1019.7
20260830220857 70 0.0 0.0 0.00 0.00 0.00 83 1019.8
20260830215838 70 0.0 0.0 0.00 0.00 0.00 82 1019.8
20260830214816 70 0.0 0.0 0.00 0.00 0.00 83 1019.7
20260830213837 70 0.0 0.0 0.00 0.00 0.00 81 1019.6
20260830212856 70 0.0 0.0 0.00 0.00 0.00 81 1019.7
20260830211837 70 0.0 0.0 0.00 0.00 0.00 80 1019.7
20260830210816 71 0.0 0.0 0.00 0.00 0.00 78 1019.9
20260830204816 71 247 1.0 3.0 0.00 0.00 0.00 78 1019.9
20260830203857 71 0.0 0.0 0.00 0.00 0.00 78 1019.8
20260830202836 71 0.0 0.0 0.00 0.00 0.00 78 1020.0
20260830201816 72 0.0 0.0 0.00 0.00 0.00 78 1019.9
20260830200816 72 0.0 0.0 0.00 0.00 0.00 75 1020.0
20260830195917 72 0 1.0 1.0 0.00 0.00 0.00 77 1019.8
20260830194816 72 0.0 1.0 0.00 0.00 0.00 76 1019.8
20260830192917 73 0.0 1.0 0.00 0.00 0.00 73 1019.8
20260830191836 73 180 1.0 3.0 0.00 0.00 0.00 72 1019.9
20260830190817 74 292 1.0 3.0 0.00 0.00 0.00 72 1020.0
20260830185856 75 0 1.0 4.0 0.00 0.00 0.00 73 1019.9
20260830184916 75 270 2.0 4.0 0.00 0.00 0.00 73 1019.8
20260830183836 74 247 1.0 2.0 0.00 0.00 0.00 78 1019.6
20260830182857 76 0.0 0.0 0.00 0.00 0.00 72 1019.7
20260830181816 77 225 2.0 3.0 0.00 0.00 0.00 70 1019.6
20260830180816 77 247 2.0 3.0 0.00 0.00 0.00 69 1019.7
20260830175856 77 247 3.0 4.0 0.00 0.00 0.00 69 1019.8